Flag for U.S.A. Weather past 2 weeks in Loma Linda, California, U.S.A.

Now
66 °F

Clear.


Feels Like: 66 °F
Forecast: 66 / 91 °F
Wind: No wind

Location: Riverside / March Air Force Base

Current Time: Aug 31, 2015 at 4:34:24 AM

Latest Report: Aug 31, 2015 at 3:58 AM


Visibility: 10 mi

Pressure: 29.83 "Hg

Humidity: 81%

Dew point: 60 °F

Location of Loma LindaLocation

Historic Weather in Loma Linda — Graph

°F

Loma Linda temperature yesterday

Maximum temperature yesterday: 94 °F (at 2:58 PM)
Minimum temperature yesterday: 66 °F (at 5:58 AM)
Average temperature yesterday: 79 °F

Past Weeks' High & Low Weather Summary

 TemperatureHumidityPressure
High105 °F (Aug 16, 1:58 PM)100% (Aug 20, 4:02 AM)29.99 "Hg (Aug 20, 4:02 AM)
Low61 °F (Aug 20, 4:02 AM)7% (Aug 16, 11:58 AM)29.79 "Hg (Aug 16, 4:58 PM)
Average79 °F52%29.89 "Hg
* Reported Aug 16 2:58 AM — Aug 31 2:58 AM, Loma Linda, Weather by CustomWeather, © 2015

Note: Actual official high and low records may vary slightly from our data, if they occured in-between our weather recording intervals... More about our weather records

Advertising

Loma Linda weather history for previous 24 hours

 ConditionsComfort  
Time TempWeatherWind HumidityBarometerVisibility
2:58 AM
Mon, Aug 31
68 °FClear.2 mph78%29.83 "Hg10 mi
1:58 AM68 °FClear.3 mph77%29.83 "Hg10 mi
12:58 AM70 °FClear.6 mph74%29.84 "Hg10 mi
11:58 PM
Sun, Aug 30
71 °FClear.2 mph74%29.84 "Hg10 mi
10:58 PM73 °FClear.3 mph67%29.84 "Hg10 mi
9:58 PM74 °FClear.No wind64%29.85 "Hg10 mi
8:58 PM75 °FClear.6 mph61%29.84 "Hg10 mi
7:58 PM79 °FSunny.6 mph52%29.82 "Hg10 mi
6:58 PM84 °FSunny.12 mph43%29.80 "Hg10 mi
5:58 PM89 °FSunny.12 mph36%29.81 "Hg10 mi
4:58 PM91 °FSunny.12 mph31%29.80 "Hg10 mi
3:58 PM93 °FSunny.15 mph31%29.81 "Hg10 mi
2:58 PM94 °FSunny.12 mph31%29.83 "Hg10 mi
1:58 PM93 °FSunny.13 mph33%29.85 "Hg10 mi
10:58 AM87 °FSunny.1 mph35%29.90 "Hg10 mi
8:58 AM79 °FSunny.6 mph45%29.89 "Hg10 mi
7:58 AM76 °FSunny.6 mph52%29.90 "Hg10 mi
6:58 AM67 °FClear.No wind66%29.89 "Hg10 mi
5:58 AM66 °FClear.No wind68%29.87 "Hg10 mi
4:58 AM68 °FClear.3 mph68%29.86 "Hg10 mi
Weather by CustomWeather, © 2015

See weather overviewHow to use our weather pages